Time,TemperatureF,DewpointF,PressureIn,WindDirection,WindDirectionDegrees,WindSpeedMPH,WindSpeedGustMPH,Humidity,HourlyPrecipIn,Conditions,Clouds,dailyrainin,SolarRadiationWatts/m^2,SoftwareType,DateUTC
2013-05-12 00:00:00,38.9,32.0,29.78,NNE,12,0.0,0.0,76,0.00,,OVC041,0.04,0.00,VWS V14.01,2013-05-12 04:00:00,
2013-05-12 00:01:00,36.9,31.6,29.79,NNE,12,0.0,0.0,81,0.00,,CLR,0.04,0.00,VWS V14.01,2013-05-12 04:01:00,
2013-05-12 00:06:00,36.8,31.5,29.79,NNE,12,0.0,0.0,81,0.00,,CLR,0.04,0.00,VWS V14.01,2013-05-12 04:06:00,
2013-05-12 00:11:00,36.6,31.3,29.79,NNE,12,0.0,0.0,81,0.00,,CLR,0.00,0.00,VWS V14.01,2013-05-12 04:11:00,
2013-05-12 00:16:00,36.5,31.5,29.79,NNE,12,0.0,0.0,82,0.00,,CLR,0.00,0.00,VWS V14.01,2013-05-12 04:16:00,
2013-05-12 00:21:00,36.5,31.5,29.79,NNE,12,0.0,0.0,82,0.00,,CLR,0.00,0.00,VWS V14.01,2013-05-12 04:21:00,
2013-05-12 00:26:00,36.3,31.6,29.78,NNE,12,0.0,0.0,83,0.00,,CLR,0.00,0.00,VWS V14.01,2013-05-12 04:26:00,
2013-05-12 00:30:00,37.6,31.7,29.78,NNE,12,0.0,0.0,79,0.00,,OVC041,0.04,0.00,VWS V14.01,2013-05-12 04:30:00,
2013-05-12 00:31:00,36.3,31.6,29.78,NNE,12,0.0,0.0,83,0.00,,CLR,0.00,0.00,VWS V14.01,2013-05-12 04:31:00,
2013-05-12 00:36:00,36.2,31.8,29.78,NNE,12,0.0,0.0,84,0.00,,CLR,0.00,0.00,VWS V14.01,2013-05-12 04:36:00,
2013-05-12 00:41:00,36.2,32.1,29.78,NNE,12,0.0,0.0,85,0.00,,CLR,0.00,0.00,VWS V14.01,2013-05-12 04:41:00,
2013-05-12 00:46:00,36.0,31.9,29.78,NNE,12,0.0,0.0,85,0.00,,CLR,0.00,0.00,VWS V14.01,2013-05-12 04:46:00,
2013-05-12 00:51:00,36.0,31.9,29.78,NNE,12,0.0,0.0,85,0.00,,CLR,0.00,0.00,VWS V14.01,2013-05-12 04:51:00,
2013-05-12 00:56:00,36.0,32.2,29.78,NNE,12,0.0,0.0,86,0.00,,CLR,0.00,0.00,VWS V14.01,2013-05-12 04:56:00,
2013-05-12 01:00:00,36.8,31.5,29.79,NNE,12,0.0,0.0,81,0.00,,OVC041,0.04,0.00,VWS V14.01,2013-05-12 05:00:00,
2013-05-12 01:01:00,35.9,32.1,29.78,NNE,12,0.0,0.0,86,0.00,,CLR,0.00,0.00,VWS V14.01,2013-05-12 05:01:00,
2013-05-12 01:06:00,35.9,32.1,29.78,NNE,12,0.0,0.0,86,0.00,,CLR,0.00,0.00,VWS V14.01,2013-05-12 05:06:00,
2013-05-12 01:11:00,35.9,32.4,29.78,NNE,12,0.0,0.0,87,0.00,,CLR,0.00,0.00,VWS V14.01,2013-05-12 05:11:00,
2013-05-12 01:16:00,35.9,32.4,29.78,NNE,12,0.0,0.0,87,0.00,,CLR,0.00,0.00,VWS V14.01,2013-05-12 05:16:00,
2013-05-12 01:21:00,35.9,32.4,29.78,NNE,12,0.0,0.0,87,0.00,,CLR,0.00,0.00,VWS V14.01,2013-05-12 05:21:00,
2013-05-12 01:26:00,35.8,32.3,29.78,NNE,12,0.0,0.0,87,0.00,,CLR,0.00,0.00,VWS V14.01,2013-05-12 05:26:00,
2013-05-12 01:30:00,36.2,31.8,29.78,NNE,12,0.0,0.0,84,0.00,,OVC041,0.00,0.00,VWS V14.01,2013-05-12 05:30:00,
2013-05-12 01:31:00,35.8,32.3,29.78,NNE,12,0.0,0.0,87,0.00,,CLR,0.00,0.00,VWS V14.01,2013-05-12 05:31:00,
2013-05-12 01:36:00,35.6,32.1,29.78,NNE,12,0.0,0.0,87,0.00,,CLR,0.00,0.00,VWS V14.01,2013-05-12 05:36:00,
2013-05-12 01:41:00,35.6,32.4,29.78,NNE,12,0.0,0.0,88,0.00,,CLR,0.00,0.00,VWS V14.01,2013-05-12 05:41:00,
2013-05-12 01:46:00,35.5,32.3,29.78,NNE,12,0.0,0.0,88,0.00,,CLR,0.00,0.00,VWS V14.01,2013-05-12 05:46:00,
2013-05-12 01:51:00,35.5,32.3,29.78,NNE,12,0.0,0.0,88,0.00,,CLR,0.00,0.00,VWS V14.01,2013-05-12 05:51:00,
2013-05-12 01:56:00,35.3,32.1,29.78,NNE,12,0.0,0.0,88,0.00,,CLR,0.00,0.00,VWS V14.01,2013-05-12 05:56:00,
2013-05-12 02:00:00,35.9,32.1,29.78,NNE,12,0.0,0.0,86,0.00,,OVC041,0.00,0.00,VWS V14.01,2013-05-12 06:00:00,
2013-05-12 02:01:00,35.3,32.1,29.78,NNE,12,0.0,0.0,88,0.00,,CLR,0.00,0.00,VWS V14.01,2013-05-12 06:01:00,
2013-05-12 02:06:00,35.2,32.0,29.78,NNE,12,0.0,0.0,88,0.00,,CLR,0.00,0.00,VWS V14.01,2013-05-12 06:06:00,
2013-05-12 02:11:00,35.2,32.3,29.78,NNE,12,0.0,0.0,89,0.00,,CLR,0.00,0.00,VWS V14.01,2013-05-12 06:11:00,
2013-05-12 02:16:00,35.2,32.3,29.78,NNE,12,0.0,0.0,89,0.00,,CLR,0.00,0.00,VWS V14.01,2013-05-12 06:16:00,
2013-05-12 02:21:00,35.2,32.3,29.78,ESE,112,0.0,0.0,89,0.00,,CLR,0.00,0.00,VWS V14.01,2013-05-12 06:21:00,
2013-05-12 02:26:00,35.2,32.3,29.78,ESE,112,0.0,0.0,89,0.00,,CLR,0.00,0.00,VWS V14.01,2013-05-12 06:26:00,
2013-05-12 02:30:00,35.6,32.4,29.78,NNE,12,0.0,0.0,88,0.00,,OVC041,0.00,0.00,VWS V14.01,2013-05-12 06:30:00,
2013-05-12 02:31:00,35.3,32.7,29.78,ESE,112,0.0,0.0,90,0.00,,CLR,0.00,0.00,VWS V14.01,2013-05-12 06:31:00,
2013-05-12 02:36:00,35.3,32.7,29.78,WSW,258,0.0,0.0,90,0.00,,CLR,0.00,0.00,VWS V14.01,2013-05-12 06:36:00,
2013-05-12 02:41:00,35.5,32.9,29.78,WSW,258,0.0,0.0,90,0.00,,CLR,0.00,0.00,VWS V14.01,2013-05-12 06:41:00,
2013-05-12 02:46:00,35.5,32.9,29.78,SSE,161,0.0,0.0,90,0.00,,CLR,0.00,0.00,VWS V14.01,2013-05-12 06:46:00,
2013-05-12 02:51:00,35.5,32.9,29.78,SSE,163,0.0,0.0,90,0.00,,CLR,0.00,0.00,VWS V14.01,2013-05-12 06:51:00,
2013-05-12 02:56:00,35.6,33.0,29.78,SSE,163,0.0,0.0,90,0.00,,CLR,0.00,0.00,VWS V14.01,2013-05-12 06:56:00,
2013-05-12 03:00:00,35.2,32.3,29.78,NNE,12,0.0,0.0,89,0.00,,OVC041,0.00,0.00,VWS V14.01,2013-05-12 07:00:00,
2013-05-12 03:01:00,35.6,33.0,29.78,SSE,163,0.0,0.0,90,0.00,,CLR,0.00,0.00,VWS V14.01,2013-05-12 07:01:00,
2013-05-12 03:06:00,35.6,33.0,29.78,SSE,163,0.0,0.0,90,0.00,,CLR,0.00,0.00,VWS V14.01,2013-05-12 07:06:00,
2013-05-12 03:11:00,35.8,33.2,29.78,SSE,163,0.0,0.0,90,0.00,,CLR,0.00,0.00,VWS V14.01,2013-05-12 07:11:00,
2013-05-12 03:16:00,35.8,33.2,29.78,SSE,163,0.0,0.0,90,0.00,,CLR,0.00,0.00,VWS V14.01,2013-05-12 07:16:00,
2013-05-12 03:21:00,35.8,33.4,29.78,NW,306,0.0,0.0,91,0.00,,CLR,0.00,0.00,VWS V14.01,2013-05-12 07:21:00,
2013-05-12 03:26:00,35.8,33.4,29.78,NW,304,0.0,0.0,91,0.00,,CLR,0.00,0.00,VWS V14.01,2013-05-12 07:26:00,
2013-05-12 03:30:00,35.3,32.7,29.78,WSW,258,0.0,0.0,90,0.00,,OVC041,0.00,0.00,VWS V14.01,2013-05-12 07:30:00,
2013-05-12 03:31:00,35.8,33.4,29.78,NW,304,0.0,0.0,91,0.00,,CLR,0.00,0.00,VWS V14.01,2013-05-12 07:31:00,
2013-05-12 03:36:00,35.9,33.5,29.78,NW,304,0.0,0.0,91,0.00,,CLR,0.00,0.00,VWS V14.01,2013-05-12 07:36:00,
2013-05-12 03:41:00,35.9,33.5,29.78,NW,304,0.0,0.0,91,0.00,,CLR,0.00,0.00,VWS V14.01,2013-05-12 07:41:00,
2013-05-12 03:46:00,36.0,33.4,29.78,NW,304,0.0,0.0,90,0.00,,CLR,0.00,0.00,VWS V14.01,2013-05-12 07:46:00,
2013-05-12 03:51:00,36.2,33.6,29.78,NW,304,0.0,0.0,90,0.00,,CLR,0.00,0.00,VWS V14.01,2013-05-12 07:51:00,
2013-05-12 03:56:00,36.3,33.7,29.78,NW,304,0.0,0.0,90,0.00,,CLR,0.00,0.00,VWS V14.01,2013-05-12 07:56:00,
2013-05-12 04:00:00,35.6,33.0,29.78,SSE,163,0.0,0.0,90,0.00,,OVC041,0.00,0.00,VWS V14.01,2013-05-12 08:00:00,
2013-05-12 04:01:00,36.5,33.8,29.78,NNE,17,0.0,0.0,90,0.00,,CLR,0.00,0.00,VWS V14.01,2013-05-12 08:01:00,
2013-05-12 04:06:00,36.6,33.7,29.78,North,349,0.0,0.0,89,0.00,,CLR,0.00,0.00,VWS V14.01,2013-05-12 08:06:00,
2013-05-12 04:11:00,36.8,33.9,29.78,North,349,0.0,0.0,89,0.00,,CLR,0.00,0.00,VWS V14.01,2013-05-12 08:11:00,
2013-05-12 04:16:00,36.8,33.6,29.78,North,351,0.0,0.0,88,0.00,,CLR,0.00,0.00,VWS V14.01,2013-05-12 08:16:00,
2013-05-12 04:21:00,36.9,33.7,29.78,NW,313,0.0,0.0,88,0.00,,CLR,0.00,0.00,VWS V14.01,2013-05-12 08:21:00,
2013-05-12 04:26:00,36.9,33.4,29.79,SE,146,1.0,0.0,87,0.00,,CLR,0.00,0.00,VWS V14.01,2013-05-12 08:26:00,
2013-05-12 04:30:00,35.9,33.5,29.78,NW,304,0.0,0.0,91,0.00,,OVC041,0.00,0.00,VWS V14.01,2013-05-12 08:30:00,
2013-05-12 04:31:00,37.0,33.2,29.79,WNW,303,0.0,0.0,86,0.00,,CLR,0.00,0.00,VWS V14.01,2013-05-12 08:31:00,
2013-05-12 04:36:00,37.0,32.9,29.79,WNW,303,0.0,0.0,85,0.00,,CLR,0.00,0.00,VWS V14.01,2013-05-12 08:36:00,
2013-05-12 04:41:00,37.2,32.5,29.79,East,94,0.0,0.0,83,0.00,,CLR,0.00,0.00,VWS V14.01,2013-05-12 08:41:00,
2013-05-12 04:46:00,37.2,32.2,29.79,North,5,0.0,0.0,82,0.00,,CLR,0.00,0.00,VWS V14.01,2013-05-12 08:46:00,
2013-05-12 04:51:00,37.2,31.9,29.79,North,5,0.0,0.0,81,0.00,,CLR,0.00,0.00,VWS V14.01,2013-05-12 08:51:00,
2013-05-12 04:56:00,37.3,31.7,29.80,North,5,0.0,0.0,80,0.00,,CLR,0.00,0.00,VWS V14.01,2013-05-12 08:56:00,
2013-05-12 05:00:00,36.6,33.7,29.78,North,349,0.0,0.0,89,0.00,,OVC041,0.00,0.00,VWS V14.01,2013-05-12 09:00:00,
2013-05-12 05:01:00,37.3,31.4,29.80,North,5,0.0,0.0,79,0.00,,CLR,0.00,0.00,VWS V14.01,2013-05-12 09:01:00,
2013-05-12 05:06:00,37.3,31.1,29.80,North,5,0.0,0.0,78,0.00,,CLR,0.00,0.00,VWS V14.01,2013-05-12 09:06:00,
2013-05-12 05:11:00,37.3,30.8,29.80,North,5,0.0,0.0,77,0.00,,CLR,0.00,0.00,VWS V14.01,2013-05-12 09:11:00,
2013-05-12 05:16:00,37.3,30.8,29.80,North,5,0.0,0.0,77,0.00,,CLR,0.00,0.00,VWS V14.01,2013-05-12 09:16:00,
2013-05-12 05:21:00,37.2,30.7,29.80,North,5,0.0,0.0,77,0.00,,CLR,0.00,0.00,VWS V14.01,2013-05-12 09:21:00,
2013-05-12 05:26:00,37.2,30.7,29.79,North,5,0.0,0.0,77,0.00,,CLR,0.00,0.00,VWS V14.01,2013-05-12 09:26:00,
2013-05-12 05:30:00,37.2,32.8,29.79,ENE,76,0.0,0.0,84,0.00,,OVC041,0.00,0.00,VWS V14.01,2013-05-12 09:30:00,
2013-05-12 05:31:00,37.2,30.4,29.79,North,5,0.0,0.0,76,0.00,,CLR,0.00,0.00,VWS V14.01,2013-05-12 09:31:00,
2013-05-12 05:36:00,37.0,30.1,29.79,North,5,0.0,0.0,76,0.00,,CLR,0.00,0.00,VWS V14.01,2013-05-12 09:36:00,
2013-05-12 05:41:00,37.0,30.5,29.79,North,5,0.0,0.0,77,0.00,,CLR,0.00,0.00,VWS V14.01,2013-05-12 09:41:00,
2013-05-12 05:46:00,36.9,30.4,29.79,North,5,0.0,0.0,77,0.00,,CLR,0.00,0.00,VWS V14.01,2013-05-12 09:46:00,
2013-05-12 05:51:00,36.9,30.4,29.79,North,5,0.0,0.0,77,0.00,,CLR,0.00,0.00,VWS V14.01,2013-05-12 09:51:00,
2013-05-12 05:56:00,36.9,30.7,29.80,North,5,0.0,0.0,78,0.00,,CLR,0.00,0.00,VWS V14.01,2013-05-12 09:56:00,
2013-05-12 06:00:00,37.3,31.1,29.80,North,5,0.0,0.0,78,0.00,,OVC041,0.00,0.00,VWS V14.01,2013-05-12 10:00:00,
2013-05-12 06:01:00,36.8,30.6,29.80,North,5,0.0,0.0,78,0.00,,CLR,0.00,0.00,VWS V14.01,2013-05-12 10:01:00,
2013-05-12 06:06:00,36.8,30.9,29.80,North,5,0.0,0.0,79,0.00,,CLR,0.00,0.00,VWS V14.01,2013-05-12 10:06:00,
2013-05-12 06:11:00,36.6,30.7,29.80,North,5,0.0,0.0,79,0.00,,CLR,0.00,0.00,VWS V14.01,2013-05-12 10:11:00,
2013-05-12 06:16:00,36.6,30.7,29.80,North,5,0.0,0.0,79,0.00,,CLR,0.00,0.00,VWS V14.01,2013-05-12 10:16:00,
2013-05-12 06:20:00,36.6,30.7,29.80,North,5,0.0,0.0,79,0.00,,CLR,0.00,0.00,VWS V14.01,2013-05-12 10:20:00,
2013-05-12 06:25:00,36.5,30.6,29.80,WNW,289,0.0,0.0,79,0.00,,CLR,0.00,0.00,VWS V14.01,2013-05-12 10:25:00,
2013-05-12 06:30:00,36.5,30.6,29.80,NNW,327,0.0,0.0,79,0.00,,CLR,0.00,5.00,VWS V14.01,2013-05-12 10:30:00,
2013-05-12 06:35:00,36.5,30.6,29.80,North,5,0.0,0.0,79,0.00,,CLR,0.00,7.00,VWS V14.01,2013-05-12 10:35:00,
2013-05-12 06:40:00,36.5,30.6,29.81,North,5,0.0,0.0,79,0.00,,CLR,0.00,11.00,VWS V14.01,2013-05-12 10:40:00,
2013-05-12 06:45:00,36.5,30.6,29.81,North,5,0.0,0.0,79,0.00,,CLR,0.00,12.00,VWS V14.01,2013-05-12 10:45:00,
2013-05-12 06:50:00,36.5,30.3,29.81,North,5,0.0,0.0,78,0.00,,CLR,0.00,16.00,VWS V14.01,2013-05-12 10:50:00,
2013-05-12 06:55:00,36.5,30.3,29.81,North,5,0.0,0.0,78,0.00,,CLR,0.00,18.00,VWS V14.01,2013-05-12 10:55:00,
2013-05-12 07:00:00,36.6,30.4,29.81,North,5,1.0,0.0,78,0.00,,CLR,0.00,21.00,VWS V14.01,2013-05-12 11:00:00,
2013-05-12 07:05:00,36.6,30.4,29.81,WNW,285,0.0,0.0,78,0.00,,CLR,0.00,26.00,VWS V14.01,2013-05-12 11:05:00,
2013-05-12 07:10:00,36.6,30.4,29.81,WNW,285,0.0,0.0,78,0.00,,CLR,0.00,56.00,VWS V14.01,2013-05-12 11:10:00,
2013-05-12 07:15:00,36.8,30.6,29.81,WNW,285,0.0,0.0,78,0.00,,CLR,0.00,46.00,VWS V14.01,2013-05-12 11:15:00,
2013-05-12 07:20:00,36.9,30.7,29.81,South,171,0.0,0.0,78,0.00,,CLR,0.00,60.00,VWS V14.01,2013-05-12 11:20:00,
2013-05-12 07:25:00,37.0,30.8,29.81,ESE,106,0.0,0.0,78,0.00,,CLR,0.00,69.00,VWS V14.01,2013-05-12 11:25:00,
2013-05-12 07:30:00,37.3,31.1,29.81,ESE,106,0.0,0.0,78,0.00,,CLR,0.00,58.00,VWS V14.01,2013-05-12 11:30:00,
2013-05-12 07:35:00,37.5,31.6,29.81,ESE,102,0.0,0.0,79,0.00,,CLR,0.00,39.00,VWS V14.01,2013-05-12 11:35:00,
2013-05-12 07:40:00,37.9,31.7,29.81,North,360,0.0,0.0,78,0.00,,CLR,0.00,93.00,VWS V14.01,2013-05-12 11:40:00,
2013-05-12 07:45:00,38.2,32.0,29.81,NW,304,2.0,0.0,78,0.00,,CLR,0.00,65.00,VWS V14.01,2013-05-12 11:45:00,
2013-05-12 07:50:00,38.5,31.9,29.81,NW,317,1.0,0.0,77,0.00,,CLR,0.00,51.00,VWS V14.01,2013-05-12 11:50:00,
2013-05-12 07:55:00,38.6,31.4,29.82,East,89,2.0,0.0,75,0.00,,CLR,0.00,26.00,VWS V14.01,2013-05-12 11:55:00,
2013-05-12 08:00:00,38.8,31.2,29.82,NW,309,0.0,0.0,74,0.00,,CLR,0.00,39.00,VWS V14.01,2013-05-12 12:00:00,
2013-05-12 08:05:00,38.9,31.3,29.82,NNW,332,3.0,0.0,74,0.00,,CLR,0.00,26.00,VWS V14.01,2013-05-12 12:05:00,
2013-05-12 08:10:00,38.9,31.0,29.82,NW,321,0.0,0.0,73,0.00,,CLR,0.00,30.00,VWS V14.01,2013-05-12 12:10:00,
2013-05-12 08:15:00,38.9,31.0,29.82,WNW,297,0.0,0.0,73,0.00,,CLR,0.00,26.00,VWS V14.01,2013-05-12 12:15:00,
2013-05-12 08:20:00,38.8,30.6,29.82,North,350,3.0,0.0,72,0.00,,CLR,0.00,49.00,VWS V14.01,2013-05-12 12:20:00,
2013-05-12 08:25:00,38.8,30.2,29.82,NW,321,1.0,0.0,71,0.00,,CLR,0.00,81.00,VWS V14.01,2013-05-12 12:25:00,
2013-05-12 08:30:00,38.9,30.7,29.82,WSW,250,1.0,0.0,72,0.00,,CLR,0.00,176.00,VWS V14.01,2013-05-12 12:30:00,
2013-05-12 08:35:00,39.2,31.0,29.82,NNW,335,0.0,0.0,72,0.00,,CLR,0.00,316.00,VWS V14.01,2013-05-12 12:35:00,
2013-05-12 08:40:00,39.5,30.5,29.83,NNW,328,1.0,0.0,70,0.00,,CLR,0.00,374.00,VWS V14.01,2013-05-12 12:40:00,
2013-05-12 08:45:00,39.9,30.9,29.83,NW,313,0.0,0.0,70,0.00,,CLR,0.00,448.00,VWS V14.01,2013-05-12 12:45:00,
2013-05-12 08:50:00,40.3,30.6,29.83,West,268,1.0,0.0,68,0.00,,CLR,0.00,86.00,VWS V14.01,2013-05-12 12:50:00,
2013-05-12 08:55:00,40.6,30.1,29.83,WSW,240,0.0,0.0,66,0.00,,CLR,0.00,577.00,VWS V14.01,2013-05-12 12:55:00,
2013-05-12 09:00:00,41.8,31.3,29.83,NNW,331,0.0,0.0,66,0.00,,CLR,0.00,503.00,VWS V14.01,2013-05-12 13:00:00,
2013-05-12 09:05:00,41.9,30.6,29.83,SSE,168,2.0,0.0,64,0.00,,BKN033,0.00,116.00,VWS V14.01,2013-05-12 13:05:00,
2013-05-12 09:10:00,41.9,30.6,29.83,NNW,332,0.0,0.0,64,0.00,,BKN033,0.00,142.00,VWS V14.01,2013-05-12 13:10:00,
2013-05-12 09:15:00,41.9,31.0,29.83,East,97,4.0,0.0,65,0.00,,BKN033,0.00,315.00,VWS V14.01,2013-05-12 13:15:00,
2013-05-12 09:20:00,42.1,31.2,29.83,NW,309,0.0,0.0,65,0.00,,BKN033,0.00,137.00,VWS V14.01,2013-05-12 13:20:00,
2013-05-12 09:25:00,41.9,30.2,29.83,WNW,282,4.0,0.0,63,0.00,,BKN033,0.00,179.00,VWS V14.01,2013-05-12 13:25:00,
2013-05-12 09:30:00,41.8,29.4,29.83,WNW,303,1.0,0.0,61,0.00,,BKN033,0.00,130.00,VWS V14.01,2013-05-12 13:30:00,
2013-05-12 09:35:00,41.6,29.2,29.83,NW,304,0.0,0.0,61,0.00,,BKN033,0.00,169.00,VWS V14.01,2013-05-12 13:35:00,
2013-05-12 09:40:00,41.6,29.6,29.84,WNW,294,0.0,0.0,62,0.00,,BKN033,0.00,186.00,VWS V14.01,2013-05-12 13:40:00,
2013-05-12 09:45:00,41.6,30.3,29.84,NW,326,0.0,0.0,64,0.00,,BKN033,0.00,211.00,VWS V14.01,2013-05-12 13:45:00,
2013-05-12 09:50:00,41.6,30.3,29.84,NW,326,1.0,0.0,64,0.00,,BKN033,0.00,206.00,VWS V14.01,2013-05-12 13:50:00,
2013-05-12 09:55:00,43.1,30.6,29.84,NNW,336,4.0,0.0,61,0.00,,BKN033,0.00,640.00,VWS V14.01,2013-05-12 13:55:00,
2013-05-12 10:00:00,43.6,30.6,29.84,NNW,337,3.0,0.0,60,0.00,,BKN033,0.00,216.00,VWS V14.01,2013-05-12 14:00:00,
2013-05-12 10:05:00,42.6,29.3,29.84,NW,304,4.0,0.0,59,0.00,,BKN033,0.00,155.00,VWS V14.01,2013-05-12 14:05:00,
2013-05-12 10:10:00,42.3,30.6,29.85,West,281,3.0,0.0,63,0.00,,BKN033,0.00,163.00,VWS V14.01,2013-05-12 14:10:00,
2013-05-12 10:15:00,43.3,30.0,29.85,NW,316,1.0,0.0,59,0.00,,BKN033,0.00,868.00,VWS V14.01,2013-05-12 14:15:00,
2013-05-12 10:20:00,43.3,29.5,29.85,ESE,112,3.0,0.0,58,0.00,,BKN042,0.00,265.00,VWS V14.01,2013-05-12 14:20:00,
2013-05-12 10:25:00,43.9,31.3,29.85,NNW,340,0.0,0.0,61,0.00,,BKN042,0.00,803.00,VWS V14.01,2013-05-12 14:25:00,
2013-05-12 10:30:00,43.8,30.0,29.85,NNW,346,3.0,0.0,58,0.00,,BKN042,0.00,863.00,VWS V14.01,2013-05-12 14:30:00,
2013-05-12 10:35:00,45.5,31.6,29.85,North,355,3.0,0.0,58,0.00,,BKN042,0.00,949.00,VWS V14.01,2013-05-12 14:35:00,
2013-05-12 10:40:00,44.2,29.5,29.85,North,5,1.0,0.0,56,0.00,,BKN042,0.00,207.00,VWS V14.01,2013-05-12 14:40:00,
2013-05-12 10:45:00,43.6,29.8,29.85,NNW,327,1.0,0.0,58,0.00,,BKN042,0.00,506.00,VWS V14.01,2013-05-12 14:45:00,
2013-05-12 10:50:00,43.2,29.0,29.85,NNW,338,1.0,0.0,57,0.00,,BKN042,0.00,288.00,VWS V14.01,2013-05-12 14:50:00,
2013-05-12 10:55:00,43.5,31.0,29.86,NNW,340,1.0,0.0,61,0.00,,BKN042,0.00,457.00,VWS V14.01,2013-05-12 14:55:00,
2013-05-12 11:00:00,43.3,30.0,29.86,West,271,0.0,0.0,59,0.00,,BKN042,0.00,350.00,VWS V14.01,2013-05-12 15:00:00,
2013-05-12 11:05:00,43.8,31.2,29.86,WNW,298,0.0,0.0,61,0.00,,BKN042,0.00,325.00,VWS V14.01,2013-05-12 15:05:00,
2013-05-12 11:10:00,43.2,29.0,29.86,NNW,339,1.0,0.0,57,0.00,,BKN042,0.00,313.00,VWS V14.01,2013-05-12 15:10:00,
2013-05-12 11:15:00,43.2,30.3,29.86,NNW,330,0.0,0.0,60,0.00,,BKN036,0.00,434.00,VWS V14.01,2013-05-12 15:15:00,
2013-05-12 11:20:00,43.3,29.5,29.86,NNW,344,1.0,0.0,58,0.00,,BKN036,0.00,281.00,VWS V14.01,2013-05-12 15:20:00,
2013-05-12 11:25:00,42.8,29.1,29.88,SE,144,1.0,0.0,58,0.00,,BKN036,0.00,274.00,VWS V14.01,2013-05-12 15:25:00,
2013-05-12 11:30:00,42.6,28.5,29.88,NW,323,1.0,0.0,57,0.00,,BKN036,0.00,309.00,VWS V14.01,2013-05-12 15:30:00,
2013-05-12 11:35:00,42.8,29.5,29.88,NNE,32,0.0,0.0,59,0.00,,BKN036,0.00,211.00,VWS V14.01,2013-05-12 15:35:00,
2013-05-12 11:40:00,42.8,29.5,29.88,NNW,336,2.0,0.0,59,0.00,,BKN036,0.00,220.00,VWS V14.01,2013-05-12 15:40:00,
2013-05-12 11:45:00,42.3,28.6,29.88,North,355,0.0,0.0,58,0.00,,BKN036,0.00,244.00,VWS V14.01,2013-05-12 15:45:00,
2013-05-12 11:50:00,42.1,29.6,29.88,NW,314,1.0,0.0,61,0.00,,BKN036,0.00,246.00,VWS V14.01,2013-05-12 15:50:00,
2013-05-12 11:55:00,42.1,30.8,29.89,NW,322,0.0,0.0,64,0.00,,BKN036,0.00,223.00,VWS V14.01,2013-05-12 15:55:00,
2013-05-12 12:00:00,42.1,30.4,29.89,WNW,290,1.0,0.0,63,0.00,,BKN036,0.00,343.00,VWS V14.01,2013-05-12 16:00:00,
2013-05-12 12:05:00,42.8,30.7,29.89,NNW,340,1.0,0.0,62,0.00,,BKN036,0.00,339.00,VWS V14.01,2013-05-12 16:05:00,
2013-05-12 12:10:00,42.9,30.4,29.89,NNE,17,0.0,0.0,61,0.00,,BKN036,0.00,311.00,VWS V14.01,2013-05-12 16:10:00,
2013-05-12 12:15:00,42.8,30.3,29.89,WNW,302,0.0,0.0,61,0.00,,OVC038,0.00,292.00,VWS V14.01,2013-05-12 16:15:00,
2013-05-12 12:20:00,42.3,30.2,29.89,West,266,0.0,0.0,62,0.00,,OVC038,0.00,323.00,VWS V14.01,2013-05-12 16:20:00,
2013-05-12 12:25:00,42.8,31.1,29.90,North,355,1.0,0.0,63,0.00,,OVC038,0.00,330.00,VWS V14.01,2013-05-12 16:25:00,
2013-05-12 12:30:00,42.8,31.5,29.90,NW,304,0.0,0.0,64,0.00,,OVC038,0.00,348.00,VWS V14.01,2013-05-12 16:30:00,
2013-05-12 12:35:00,42.9,30.0,29.90,West,261,2.0,0.0,60,0.00,,OVC038,0.00,362.00,VWS V14.01,2013-05-12 16:35:00,
2013-05-12 12:40:00,43.1,30.6,29.90,WSW,240,2.0,0.0,61,0.00,,OVC038,0.00,432.00,VWS V14.01,2013-05-12 16:40:00,
2013-05-12 12:45:00,43.8,30.4,29.90,North,355,3.0,0.0,59,0.00,,OVC038,0.00,338.00,VWS V14.01,2013-05-12 16:45:00,
2013-05-12 12:50:00,43.5,30.5,29.90,WNW,291,1.0,0.0,60,0.00,,OVC038,0.00,327.00,VWS V14.01,2013-05-12 16:50:00,
2013-05-12 12:55:00,43.2,31.5,29.90,NW,319,0.0,0.0,63,0.00,,OVC038,0.00,258.00,VWS V14.01,2013-05-12 16:55:00,
2013-05-12 13:00:00,43.1,31.0,29.90,NNW,327,1.0,0.0,62,0.00,,OVC038,0.00,267.00,VWS V14.01,2013-05-12 17:00:00,
2013-05-12 13:05:00,42.8,30.7,29.90,North,5,1.0,0.0,62,0.00,,OVC038,0.00,269.00,VWS V14.01,2013-05-12 17:05:00,
2013-05-12 13:10:00,42.8,31.5,29.90,NNW,331,2.0,0.0,64,0.00,,OVC034,0.00,267.00,VWS V14.01,2013-05-12 17:10:00,
2013-05-12 13:15:00,42.6,31.7,29.90,WNW,291,0.0,0.0,65,0.00,,OVC034,0.00,295.00,VWS V14.01,2013-05-12 17:15:00,
2013-05-12 13:20:00,42.6,30.1,29.90,NW,325,1.0,0.0,61,0.00,,OVC034,0.00,341.00,VWS V14.01,2013-05-12 17:20:00,
2013-05-12 13:25:00,42.8,30.7,29.91,West,278,0.0,0.0,62,0.00,,OVC034,0.00,374.00,VWS V14.01,2013-05-12 17:25:00,
2013-05-12 13:30:00,43.2,31.1,29.91,WNW,298,0.0,0.0,62,0.00,,OVC034,0.00,387.00,VWS V14.01,2013-05-12 17:30:00,
2013-05-12 13:35:00,43.5,31.0,29.91,NW,314,1.0,0.0,61,0.00,,OVC034,0.00,367.00,VWS V14.01,2013-05-12 17:35:00,
2013-05-12 13:40:00,43.6,31.5,29.91,East,90,3.0,0.0,62,0.00,,OVC034,0.00,459.00,VWS V14.01,2013-05-12 17:40:00,
2013-05-12 13:45:00,44.1,31.1,29.91,North,355,1.0,0.0,60,0.00,,OVC034,0.00,320.00,VWS V14.01,2013-05-12 17:45:00,
2013-05-12 13:50:00,43.6,29.8,29.91,NNW,342,2.0,0.0,58,0.00,,OVC034,0.00,364.00,VWS V14.01,2013-05-12 17:50:00,
2013-05-12 13:55:00,43.8,30.4,29.91,SSW,208,0.0,0.0,59,0.00,,OVC034,0.00,353.00,VWS V14.01,2013-05-12 17:55:00,
2013-05-12 14:00:00,44.1,31.1,29.91,NW,321,1.0,0.0,60,0.00,,OVC034,0.00,330.00,VWS V14.01,2013-05-12 18:00:00,
2013-05-12 14:05:00,44.1,29.9,29.91,West,262,0.0,0.0,57,0.00,,OVC034,0.00,404.00,VWS V14.01,2013-05-12 18:05:00,
2013-05-12 14:10:00,44.2,30.4,29.91,West,265,0.0,0.0,58,0.00,,OVC034,0.00,311.00,VWS V14.01,2013-05-12 18:10:00,
2013-05-12 14:15:00,43.9,31.3,29.91,NNW,336,1.0,0.0,61,0.00,,OVC034,0.00,359.00,VWS V14.01,2013-05-12 18:15:00,
2013-05-12 14:20:00,44.9,31.5,29.91,NE,37,0.0,0.0,59,0.00,,OVC034,0.00,350.00,VWS V14.01,2013-05-12 18:20:00,
2013-05-12 14:25:00,44.9,31.5,29.91,NW,325,2.0,0.0,59,0.00,,OVC034,0.00,383.00,VWS V14.01,2013-05-12 18:25:00,
2013-05-12 14:30:00,44.6,31.2,29.91,ENE,77,1.0,0.0,59,0.00,,OVC034,0.00,404.00,VWS V14.01,2013-05-12 18:30:00,
2013-05-12 14:35:00,44.8,30.9,29.91,NW,317,1.0,0.0,58,0.00,,OVC034,0.00,417.00,VWS V14.01,2013-05-12 18:35:00,
2013-05-12 14:40:00,44.9,31.0,29.92,NW,321,1.0,0.0,58,0.00,,OVC034,0.00,367.00,VWS V14.01,2013-05-12 18:40:00,
2013-05-12 14:45:00,45.4,30.6,29.92,WSW,256,1.0,0.0,56,0.00,,OVC034,0.00,322.00,VWS V14.01,2013-05-12 18:45:00,
2013-05-12 14:50:00,46.1,31.7,29.92,WNW,297,0.0,0.0,57,0.00,,OVC034,0.00,1234.00,VWS V14.01,2013-05-12 18:50:00,
2013-05-12 14:55:00,47.0,30.8,29.91,North,355,2.0,0.0,53,0.00,,OVC034,0.00,1236.00,VWS V14.01,2013-05-12 18:55:00,
2013-05-12 15:00:00,46.5,31.7,29.91,NW,322,1.0,0.0,56,0.00,,OVC034,0.00,343.00,VWS V14.01,2013-05-12 19:00:00,
2013-05-12 15:05:00,46.7,32.7,29.91,NW,306,1.0,0.0,58,0.00,,OVC034,0.00,990.00,VWS V14.01,2013-05-12 19:05:00,
2013-05-12 15:10:00,47.1,30.9,29.91,NW,324,0.0,0.0,53,0.00,,OVC034,0.00,371.00,VWS V14.01,2013-05-12 19:10:00,
2013-05-12 15:15:00,46.8,30.6,29.91,SW,236,0.0,0.0,53,0.00,,OVC034,0.00,285.00,VWS V14.01,2013-05-12 19:15:00,
2013-05-12 15:20:00,48.6,33.2,29.91,WNW,298,0.0,0.0,55,0.00,,OVC034,0.00,958.00,VWS V14.01,2013-05-12 19:20:00,
2013-05-12 15:25:00,48.9,30.1,29.90,SW,236,1.0,0.0,48,0.00,,OVC034,0.00,933.00,VWS V14.01,2013-05-12 19:25:00,
2013-05-12 15:30:00,49.1,30.8,29.90,NNW,328,2.0,0.0,49,0.00,,OVC034,0.00,1021.00,VWS V14.01,2013-05-12 19:30:00,
2013-05-12 15:35:00,47.6,29.9,29.90,NW,313,0.0,0.0,50,0.00,,OVC034,0.00,338.00,VWS V14.01,2013-05-12 19:35:00,
2013-05-12 15:40:00,47.9,28.1,29.91,NE,42,1.0,0.0,46,0.00,,FEW036,0.00,995.00,VWS V14.01,2013-05-12 19:40:00,
2013-05-12 15:45:00,49.2,30.4,29.91,SE,127,0.0,0.0,48,0.00,,FEW036,0.00,380.00,VWS V14.01,2013-05-12 19:45:00,
2013-05-12 15:50:00,48.6,28.2,29.91,WNW,286,1.0,0.0,45,0.00,,FEW036,0.00,304.00,VWS V14.01,2013-05-12 19:50:00,
2013-05-12 15:55:00,48.6,31.3,29.90,SW,219,1.0,0.0,51,0.00,,FEW036,0.00,979.00,VWS V14.01,2013-05-12 19:55:00,
2013-05-12 16:00:00,48.9,31.1,29.90,NW,308,1.0,0.0,50,0.00,,FEW036,0.00,243.00,VWS V14.01,2013-05-12 20:00:00,
2013-05-12 16:05:00,48.9,32.1,29.90,NW,321,2.0,0.0,52,0.00,,FEW036,0.00,239.00,VWS V14.01,2013-05-12 20:05:00,
2013-05-12 16:10:00,49.9,31.0,29.89,South,188,7.0,0.0,48,0.00,,FEW036,0.00,847.00,VWS V14.01,2013-05-12 20:10:00,
2013-05-12 16:15:00,48.3,30.0,29.89,NW,314,0.0,0.0,49,0.00,,FEW036,0.00,158.00,VWS V14.01,2013-05-12 20:15:00,
2013-05-12 16:20:00,47.9,31.6,29.89,North,355,0.0,0.0,53,0.00,,FEW036,0.00,914.00,VWS V14.01,2013-05-12 20:20:00,
2013-05-12 16:25:00,48.0,29.3,29.89,WNW,301,1.0,0.0,48,0.00,,FEW036,0.00,251.00,VWS V14.01,2013-05-12 20:25:00,
2013-05-12 16:30:00,48.3,30.0,29.89,West,281,0.0,0.0,49,0.00,,FEW036,0.00,251.00,VWS V14.01,2013-05-12 20:30:00,
2013-05-12 16:35:00,48.9,30.6,29.89,NNW,346,2.0,0.0,49,0.00,,FEW036,0.00,907.00,VWS V14.01,2013-05-12 20:35:00,
2013-05-12 16:40:00,50.4,31.0,29.89,North,360,2.0,0.0,47,0.00,,FEW036,0.00,846.00,VWS V14.01,2013-05-12 20:40:00,
2013-05-12 16:45:00,49.6,29.7,29.89,NNW,345,1.0,0.0,46,0.00,,FEW036,0.00,861.00,VWS V14.01,2013-05-12 20:45:00,
2013-05-12 16:50:00,49.5,31.1,29.89,NW,311,0.0,0.0,49,0.00,,FEW036,0.00,195.00,VWS V14.01,2013-05-12 20:50:00,
2013-05-12 16:55:00,49.9,29.4,29.88,SW,219,1.0,0.0,45,0.00,,BKN048,0.00,763.00,VWS V14.01,2013-05-12 20:55:00,
2013-05-12 16:59:00,50.2,31.8,29.88,NNW,333,0.0,0.0,49,0.00,,BKN048,0.00,733.00,VWS V14.01,2013-05-12 20:59:00,
2013-05-12 17:00:00,49.6,33.2,29.89,NNW,338,0.0,0.0,53,0.00,,OVC041,0.00,872.00,VWS V14.01,2013-05-12 21:00:00,
2013-05-12 17:04:00,49.9,30.5,29.88,NNW,331,3.0,0.0,47,0.00,,BKN048,0.00,171.00,VWS V14.01,2013-05-12 21:04:00,
2013-05-12 17:09:00,48.9,29.6,29.88,NW,320,0.0,0.0,47,0.00,,BKN048,0.00,696.00,VWS V14.01,2013-05-12 21:09:00,
2013-05-12 17:14:00,49.4,30.5,29.88,WSW,246,4.0,0.0,48,0.00,,BKN048,0.00,668.00,VWS V14.01,2013-05-12 21:14:00,
2013-05-12 17:19:00,49.5,29.6,29.88,NNW,334,0.0,0.0,46,0.00,,BKN048,0.00,647.00,VWS V14.01,2013-05-12 21:19:00,
2013-05-12 17:24:00,49.4,30.0,29.88,NNE,28,1.0,0.0,47,0.00,,BKN048,0.00,668.00,VWS V14.01,2013-05-12 21:24:00,
2013-05-12 17:29:00,49.1,27.0,29.88,WNW,294,1.0,0.0,42,0.00,,FEW048,0.00,598.00,VWS V14.01,2013-05-12 21:29:00,
2013-05-12 17:30:00,49.9,30.5,29.89,NNW,346,1.0,0.0,47,0.00,,OVC041,0.00,803.00,VWS V14.01,2013-05-12 21:30:00,
2013-05-12 17:34:00,48.9,29.0,29.88,NNW,336,1.0,0.0,46,0.00,,FEW048,0.00,561.00,VWS V14.01,2013-05-12 21:34:00,
2013-05-12 17:39:00,49.2,29.3,29.88,NW,324,3.0,0.0,46,0.00,,FEW048,0.00,503.00,VWS V14.01,2013-05-12 21:39:00,
2013-05-12 17:44:00,48.6,29.3,29.88,WNW,298,1.0,0.0,47,0.00,,FEW048,0.00,84.00,VWS V14.01,2013-05-12 21:44:00,
2013-05-12 17:49:00,48.2,28.9,29.88,West,274,0.0,0.0,47,0.00,,FEW048,0.00,401.00,VWS V14.01,2013-05-12 21:49:00,
2013-05-12 17:54:00,48.3,29.5,29.88,NNW,327,1.0,0.0,48,0.00,,FEW048,0.00,253.00,VWS V14.01,2013-05-12 21:54:00,
2013-05-12 17:59:00,48.3,28.5,29.88,NW,312,1.0,0.0,46,0.00,,FEW048,0.00,102.00,VWS V14.01,2013-05-12 21:59:00,
2013-05-12 18:00:00,48.9,29.6,29.88,NW,319,0.0,0.0,47,0.00,,OVC041,0.00,694.00,VWS V14.01,2013-05-12 22:00:00,
2013-05-12 18:04:00,47.9,27.6,29.88,SW,222,0.0,0.0,45,0.00,,FEW048,0.00,304.00,VWS V14.01,2013-05-12 22:04:00,
2013-05-12 18:09:00,47.9,28.7,29.88,NNW,342,1.0,0.0,47,0.00,,FEW048,0.00,250.00,VWS V14.01,2013-05-12 22:09:00,
2013-05-12 18:14:00,48.0,28.2,29.88,North,9,0.0,0.0,46,0.00,,FEW048,0.00,308.00,VWS V14.01,2013-05-12 22:14:00,
2013-05-12 18:19:00,48.0,29.3,29.88,West,269,0.0,0.0,48,0.00,,FEW048,0.00,84.00,VWS V14.01,2013-05-12 22:19:00,
2013-05-12 18:24:00,47.9,28.1,29.88,North,5,1.0,0.0,46,0.00,,FEW048,0.00,146.00,VWS V14.01,2013-05-12 22:24:00,
2013-05-12 18:29:00,47.6,28.4,29.88,NNE,13,1.0,0.0,47,0.00,,FEW048,0.00,257.00,VWS V14.01,2013-05-12 22:29:00,
2013-05-12 18:30:00,49.2,29.3,29.88,SSW,194,2.0,0.0,46,0.00,,OVC041,0.00,587.00,VWS V14.01,2013-05-12 22:30:00,
2013-05-12 18:34:00,47.6,28.9,29.88,NW,318,1.0,0.0,48,0.00,,CLR,0.00,91.00,VWS V14.01,2013-05-12 22:34:00,
2013-05-12 18:39:00,47.3,29.1,29.88,NW,317,0.0,0.0,49,0.00,,CLR,0.00,181.00,VWS V14.01,2013-05-12 22:39:00,
2013-05-12 18:44:00,47.4,29.2,29.88,NW,317,1.0,0.0,49,0.00,,CLR,0.00,56.00,VWS V14.01,2013-05-12 22:44:00,
2013-05-12 18:49:00,47.3,29.6,29.88,ESE,109,0.0,0.0,50,0.00,,CLR,0.00,153.00,VWS V14.01,2013-05-12 22:49:00,
2013-05-12 18:54:00,47.1,28.4,29.89,NNE,17,0.0,0.0,48,0.00,,CLR,0.00,53.00,VWS V14.01,2013-05-12 22:54:00,
2013-05-12 18:59:00,47.0,28.3,29.89,NW,315,0.0,0.0,48,0.00,,CLR,0.00,67.00,VWS V14.01,2013-05-12 22:59:00,
2013-05-12 19:00:00,47.9,27.6,29.88,North,355,0.0,0.0,45,0.00,,OVC041,0.00,396.00,VWS V14.01,2013-05-12 23:00:00,
2013-05-12 19:04:00,46.8,28.2,29.89,NW,322,0.0,0.0,48,0.00,,CLR,0.00,46.00,VWS V14.01,2013-05-12 23:04:00,
2013-05-12 19:09:00,46.7,29.1,29.89,West,269,0.0,0.0,50,0.00,,CLR,0.00,42.00,VWS V14.01,2013-05-12 23:09:00,
2013-05-12 19:14:00,46.4,29.3,29.89,West,269,0.0,0.0,51,0.00,,CLR,0.00,40.00,VWS V14.01,2013-05-12 23:14:00,
2013-05-12 19:19:00,46.1,29.5,29.89,West,264,1.0,0.0,52,0.00,,CLR,0.00,39.00,VWS V14.01,2013-05-12 23:19:00,
2013-05-12 19:24:00,46.0,28.4,29.89,North,360,0.0,0.0,50,0.00,,CLR,0.00,37.00,VWS V14.01,2013-05-12 23:24:00,
2013-05-12 19:29:00,45.8,29.2,29.89,North,360,0.0,0.0,52,0.00,,CLR,0.00,37.00,VWS V14.01,2013-05-12 23:29:00,
2013-05-12 19:30:00,47.4,28.7,29.88,NW,317,0.0,0.0,48,0.00,,OVC041,0.00,200.00,VWS V14.01,2013-05-12 23:30:00,
2013-05-12 19:34:00,45.7,28.1,29.89,North,355,0.0,0.0,50,0.00,,CLR,0.00,33.00,VWS V14.01,2013-05-12 23:34:00,
2013-05-12 19:39:00,45.4,28.4,29.88,WNW,300,0.0,0.0,51,0.00,,CLR,0.00,32.00,VWS V14.01,2013-05-12 23:39:00,
2013-05-12 19:44:00,45.1,28.5,29.88,WNW,300,0.0,0.0,52,0.00,,CLR,0.00,30.00,VWS V14.01,2013-05-12 23:44:00,
2013-05-12 19:49:00,44.9,28.8,29.88,WNW,300,0.0,0.0,53,0.00,,CLR,0.00,28.00,VWS V14.01,2013-05-12 23:49:00,
2013-05-12 19:54:00,44.8,27.8,29.88,WNW,300,0.0,0.0,51,0.00,,CLR,0.00,26.00,VWS V14.01,2013-05-12 23:54:00,
2013-05-12 19:59:00,44.5,28.5,29.88,WNW,300,0.0,0.0,53,0.00,,CLR,0.00,25.00,VWS V14.01,2013-05-12 23:59:00,
2013-05-12 20:00:00,46.7,28.1,29.89,West,262,0.0,0.0,48,0.00,,OVC041,0.00,42.00,VWS V14.01,2013-05-13 00:00:00,
2013-05-12 20:04:00,44.2,28.6,29.88,WNW,300,0.0,0.0,54,0.00,,CLR,0.00,23.00,VWS V14.01,2013-05-13 00:04:00,
2013-05-12 20:09:00,43.9,28.4,29.89,WNW,300,0.0,0.0,54,0.00,,CLR,0.00,21.00,VWS V14.01,2013-05-13 00:09:00,
2013-05-12 20:14:00,43.8,28.2,29.89,WNW,300,0.0,0.0,54,0.00,,CLR,0.00,18.00,VWS V14.01,2013-05-13 00:14:00,
2013-05-12 20:19:00,43.5,28.0,29.89,WNW,301,0.0,0.0,54,0.00,,CLR,0.00,16.00,VWS V14.01,2013-05-13 00:19:00,
2013-05-12 20:24:00,43.2,28.1,29.89,NNE,15,0.0,0.0,55,0.00,,CLR,0.00,14.00,VWS V14.01,2013-05-13 00:24:00,
2013-05-12 20:29:00,42.9,28.3,29.89,NNE,15,0.0,0.0,56,0.00,,CLR,0.00,12.00,VWS V14.01,2013-05-13 00:29:00,
2013-05-12 20:30:00,45.5,28.9,29.88,NNW,346,0.0,0.0,52,0.00,,OVC041,0.00,32.00,VWS V14.01,2013-05-13 00:30:00,
2013-05-12 20:34:00,42.6,28.0,29.89,NNE,15,0.0,0.0,56,0.00,,CLR,0.00,11.00,VWS V14.01,2013-05-13 00:34:00,
2013-05-12 20:39:00,42.3,27.7,29.89,NNE,15,0.0,0.0,56,0.00,,CLR,0.00,9.00,VWS V14.01,2013-05-13 00:39:00,
2013-05-12 20:44:00,42.1,27.5,29.89,NNE,15,0.0,0.0,56,0.00,,CLR,0.00,5.00,VWS V14.01,2013-05-13 00:44:00,
2013-05-12 20:49:00,41.8,28.1,29.89,NNE,15,0.0,0.0,58,0.00,,CLR,0.00,0.00,VWS V14.01,2013-05-13 00:49:00,
2013-05-12 20:54:00,41.3,27.6,29.89,NNE,15,0.0,0.0,58,0.00,,CLR,0.00,0.00,VWS V14.01,2013-05-13 00:54:00,
2013-05-12 20:59:00,41.1,27.9,29.89,NNE,15,0.0,0.0,59,0.00,,CLR,0.00,0.00,VWS V14.01,2013-05-13 00:59:00,
2013-05-12 21:00:00,44.1,29.0,29.89,WNW,300,0.0,0.0,55,0.00,,OVC041,0.00,21.00,VWS V14.01,2013-05-13 01:00:00,
2013-05-12 21:04:00,40.6,27.8,29.89,NNE,15,0.0,0.0,60,0.00,,CLR,0.00,0.00,VWS V14.01,2013-05-13 01:04:00,
2013-05-12 21:09:00,40.3,28.3,29.89,NNE,15,0.0,0.0,62,0.00,,CLR,0.00,0.00,VWS V14.01,2013-05-13 01:09:00,
2013-05-12 21:14:00,39.8,28.6,29.89,NNE,15,0.0,0.0,64,0.00,,CLR,0.00,0.00,VWS V14.01,2013-05-13 01:14:00,
2013-05-12 21:19:00,39.3,28.9,29.89,NNE,15,0.0,0.0,66,0.00,,CLR,0.00,0.00,VWS V14.01,2013-05-13 01:19:00,
2013-05-12 21:24:00,38.8,29.2,29.90,NNE,15,0.0,0.0,68,0.00,,CLR,0.00,0.00,VWS V14.01,2013-05-13 01:24:00,
2013-05-12 21:29:00,38.3,29.0,29.90,NNE,15,0.0,0.0,69,0.00,,CLR,0.00,0.00,VWS V14.01,2013-05-13 01:29:00,
2013-05-12 21:30:00,42.5,28.4,29.89,NNE,15,0.0,0.0,57,0.00,,OVC041,0.00,9.00,VWS V14.01,2013-05-13 01:30:00,
2013-05-12 21:34:00,37.9,29.0,29.90,NNE,15,0.0,0.0,70,0.00,,CLR,0.00,0.00,VWS V14.01,2013-05-13 01:34:00,
2013-05-12 21:39:00,38.0,29.1,29.90,NNE,15,0.0,0.0,70,0.00,,CLR,0.00,0.00,VWS V14.01,2013-05-13 01:39:00,
2013-05-12 21:44:00,38.0,29.1,29.90,NNE,15,0.0,0.0,70,0.00,,CLR,0.00,0.00,VWS V14.01,2013-05-13 01:44:00,
2013-05-12 21:49:00,38.0,28.8,29.90,NNE,15,0.0,0.0,69,0.00,,CLR,0.00,0.00,VWS V14.01,2013-05-13 01:49:00,
2013-05-12 21:54:00,37.9,28.6,29.91,NNE,15,0.0,0.0,69,0.00,,CLR,0.00,0.00,VWS V14.01,2013-05-13 01:54:00,
2013-05-12 21:59:00,37.9,28.6,29.91,NNE,15,0.0,0.0,69,0.00,,CLR,0.00,0.00,VWS V14.01,2013-05-13 01:59:00,
2013-05-12 22:00:00,40.5,28.5,29.89,NNE,15,0.0,0.0,62,0.00,,OVC041,0.00,0.00,VWS V14.01,2013-05-13 02:00:00,
2013-05-12 22:04:00,37.8,28.6,29.91,NNE,15,0.0,0.0,69,0.00,,CLR,0.00,0.00,VWS V14.01,2013-05-13 02:04:00,
2013-05-12 22:09:00,37.5,28.3,29.91,NNE,15,0.0,0.0,69,0.00,,CLR,0.00,0.00,VWS V14.01,2013-05-13 02:09:00,
2013-05-12 22:14:00,37.3,28.1,29.91,NNE,15,0.0,0.0,69,0.00,,CLR,0.00,0.00,VWS V14.01,2013-05-13 02:14:00,
2013-05-12 22:19:00,37.2,28.3,29.91,NNE,15,0.0,0.0,70,0.00,,CLR,0.00,0.00,VWS V14.01,2013-05-13 02:19:00,
2013-05-12 22:24:00,36.9,28.0,29.91,NNE,15,0.0,0.0,70,0.00,,CLR,0.00,0.00,VWS V14.01,2013-05-13 02:24:00,
2013-05-12 22:29:00,36.8,28.3,29.91,NNE,15,0.0,0.0,71,0.00,,CLR,0.00,0.00,VWS V14.01,2013-05-13 02:29:00,
2013-05-12 22:30:00,38.0,29.5,29.90,NNE,15,0.0,0.0,71,0.00,,OVC041,0.00,0.00,VWS V14.01,2013-05-13 02:30:00,
2013-05-12 22:34:00,36.6,28.1,29.91,NNE,15,0.0,0.0,71,0.00,,CLR,0.00,0.00,VWS V14.01,2013-05-13 02:34:00,
2013-05-12 22:39:00,36.5,28.4,29.92,NNE,15,0.0,0.0,72,0.00,,CLR,0.00,0.00,VWS V14.01,2013-05-13 02:39:00,
2013-05-12 22:44:00,36.3,28.1,29.92,NNE,15,0.0,0.0,72,0.00,,CLR,0.00,0.00,VWS V14.01,2013-05-13 02:44:00,
2013-05-12 22:49:00,36.0,27.9,29.92,NNE,15,0.0,0.0,72,0.00,,CLR,0.00,0.00,VWS V14.01,2013-05-13 02:49:00,
2013-05-12 22:54:00,35.9,27.8,29.92,NNE,15,0.0,0.0,72,0.00,,CLR,0.00,0.00,VWS V14.01,2013-05-13 02:54:00,
2013-05-12 22:59:00,35.8,28.0,29.92,NNE,15,0.0,0.0,73,0.00,,CLR,0.00,0.00,VWS V14.01,2013-05-13 02:59:00,
2013-05-12 23:00:00,37.6,28.4,29.91,NNE,15,0.0,0.0,69,0.00,,OVC041,0.00,0.00,VWS V14.01,2013-05-13 03:00:00,
2013-05-12 23:04:00,35.5,28.0,29.92,NNE,15,0.0,0.0,74,0.00,,CLR,0.00,0.00,VWS V14.01,2013-05-13 03:04:00,
2013-05-12 23:09:00,35.3,27.9,29.91,NNE,15,0.0,0.0,74,0.00,,CLR,0.00,0.00,VWS V14.01,2013-05-13 03:09:00,
2013-05-12 23:14:00,35.2,27.8,29.91,NNE,15,0.0,0.0,74,0.00,,CLR,0.00,0.00,VWS V14.01,2013-05-13 03:14:00,
2013-05-12 23:19:00,35.0,27.6,29.91,NNE,15,0.0,0.0,74,0.00,,CLR,0.00,0.00,VWS V14.01,2013-05-13 03:19:00,
2013-05-12 23:24:00,34.7,27.6,29.91,NNE,15,0.0,0.0,75,0.00,,CLR,0.00,0.00,VWS V14.01,2013-05-13 03:24:00,
2013-05-12 23:29:00,34.6,27.5,29.91,NNE,15,0.0,0.0,75,0.00,,CLR,0.00,0.00,VWS V14.01,2013-05-13 03:29:00,
2013-05-12 23:30:00,36.5,28.4,29.92,NNE,15,0.0,0.0,72,0.00,,OVC041,0.00,0.00,VWS V14.01,2013-05-13 03:30:00,
2013-05-12 23:34:00,34.4,27.3,29.91,NNE,15,0.0,0.0,75,0.00,,CLR,0.00,0.00,VWS V14.01,2013-05-13 03:34:00,
2013-05-12 23:39:00,34.3,27.2,29.91,NNE,15,0.0,0.0,75,0.00,,CLR,0.00,0.00,VWS V14.01,2013-05-13 03:39:00,
2013-05-12 23:44:00,34.1,27.0,29.91,NNE,15,0.0,0.0,75,0.00,,CLR,0.00,0.00,VWS V14.01,2013-05-13 03:44:00,
2013-05-12 23:49:00,34.0,26.9,29.91,NNE,15,0.0,0.0,75,0.00,,CLR,0.00,0.00,VWS V14.01,2013-05-13 03:49:00,
2013-05-12 23:54:00,33.8,27.0,29.91,NNE,15,0.0,0.0,76,0.00,,CLR,0.00,0.00,VWS V14.01,2013-05-13 03:54:00,
2013-05-12 23:59:00,33.8,27.0,29.91,NNE,15,0.0,0.0,76,0.00,,CLR,0.00,0.00,VWS V14.01,2013-05-13 03:59:00,